Weather History for Tomahawk, WI

Change the Weather History Date:

Saturday, May 3, 2014

  Actual Average (KRHI) Record (KRHI)
Temperature  
Mean Temperature 46 °F 49 °F  
Max Temperature 55 °F 62 °F 90 °F (1959)
Min Temperature 37 °F 36 °F 19 °F (2004)
Degree Days  
Heating Degree Days 20 16  
Month to date heating degree days 50  
Since 1 July heating degree days 8550  
Cooling Degree Days 0 0  
Month to date cooling degree days 0  
Year to date cooling degree days 1  
Moisture  
Dew Point 32 °F    
Average Humidity 64    
Maximum Humidity 93    
Minimum Humidity 33    
Precipitation  
Precipitation 0.01 in 0.11 in 1.03 in (1942)
Month to date precipitation 0.32  
Year to date precipitation 6.51  
Snow  
Snow 0.00 in - 0.20 in (2013)
Month to date snowfall  
Since 1 July snowfall  
Snow Depth -    
Sea Level Pressure  
Sea Level Pressure 29.71 in    
Wind  
Wind Speed 6 mph (WNW)    
Max Wind Speed 20 mph    
Max Gust Speed 29 mph    
Visibility 10 miles    
Events Rain    
T = Trace of Precipitation, MM = Missing Value Source: NWS Daily Summary

Daily Weather History Graph

Daily Weather History Graph

Search for Another Location

Airport:

Trip Planner

Search our weather history database for the weather conditions in past years. The results will help you decide how hot, cold, wet, or windy it might be!

Date:

Astronomy

May. 03, 2014 Rise Set
Actual Time 5:44 AM CDT 8:08 PM CDT
Civil Twilight 5:11 AM CDT 8:41 PM CDT
Nautical Twilight 4:30 AM CDT 9:22 PM CDT
Astronomical Twilight 3:44 AM CDT 10:09 PM CDT
Moon 9:11 AM CDT (5/3) No Moon Set
Length of Visible Light 15h 30m
Length of Day
14h 24m
Waxing Crescent, 20% of the Moon is Illuminated
May 3
Waxing Crescent
May 6
First Quarter
May 14
Full
May 21
Last Quarter
May 28
New

Hourly Weather History & Observations

Time (CDT) Temp. Windchill Dew Point Humidity Pressure Visibility Wind Dir Wind Speed Gust Speed Precip Events Conditions
12:15 AM 41.2 °F - 38.5 °F 90% 29.62 in 10.0 mi Calm Calm - N/A   Overcast
12:55 AM 41.9 °F - 38.5 °F 88% 29.61 in 10.0 mi Calm Calm - N/A   Light Drizzle
1:15 AM 41.9 °F - 38.7 °F 88% 29.61 in 10.0 mi Calm Calm - N/A   Light Drizzle
1:35 AM 41.7 °F - 38.8 °F 89% 29.61 in 10.0 mi Calm Calm - N/A   Drizzle
1:55 AM 41.9 °F - 39.2 °F 90% 29.61 in 10.0 mi Calm Calm - N/A   Light Drizzle
2:15 AM 41.9 °F - 39.2 °F 90% 29.60 in 10.0 mi Calm Calm - N/A   Overcast
2:35 AM 41.9 °F - 39.0 °F 90% 29.60 in 10.0 mi Calm Calm - N/A   Overcast
2:55 AM 41.5 °F - 38.3 °F 88% 29.61 in 10.0 mi Calm Calm - N/A   Mostly Cloudy
3:15 AM 41.9 °F - 38.3 °F 87% 29.61 in 10.0 mi Calm Calm - N/A   Overcast
3:35 AM 41.4 °F - 37.9 °F 88% 29.61 in 7.0 mi Calm Calm - 0.01 in Rain Rain
3:55 AM 40.6 °F 38.6 °F 37.6 °F 89% 29.61 in 10.0 mi West 3.5 mph - 0.01 in   Overcast
4:15 AM 40.5 °F - 37.8 °F 90% 29.61 in 10.0 mi Calm Calm - N/A   Overcast
4:35 AM 39.7 °F 34.9 °F 36.7 °F 89% 29.61 in 10.0 mi West 6.9 mph - N/A   Scattered Clouds
4:55 AM 38.5 °F - 35.8 °F 90% 29.61 in 10.0 mi Calm Calm - N/A   Clear
5:15 AM 37.4 °F - 35.4 °F 93% 29.61 in 10.0 mi Calm Calm - N/A   Clear
5:35 AM 37.6 °F - 35.8 °F 93% 29.62 in 10.0 mi Calm Calm - N/A   Scattered Clouds
5:55 AM 37.4 °F - 35.6 °F 93% 29.62 in 10.0 mi Calm Calm - N/A   Mostly Cloudy
6:15 AM 38.7 °F 31.8 °F 36.5 °F 92% 29.63 in 10.0 mi WNW 10.4 mph 19.6 mph N/A   Overcast
6:35 AM 39.7 °F 34.3 °F 35.1 °F 83% 29.64 in 10.0 mi NW 8.1 mph 20.7 mph N/A   Overcast
6:55 AM 40.1 °F 33.6 °F 34.9 °F 82% 29.65 in 10.0 mi WNW 10.4 mph 16.1 mph N/A   Overcast
7:15 AM 40.1 °F 34.1 °F 34.7 °F 81% 29.66 in 10.0 mi WNW 9.2 mph 19.6 mph N/A   Overcast
7:35 AM 40.1 °F 33.2 °F 35.1 °F 82% 29.66 in 10.0 mi WNW 11.5 mph - N/A   Overcast
7:55 AM 40.3 °F 34.9 °F 35.1 °F 82% 29.67 in 10.0 mi WNW 8.1 mph - N/A   Overcast
8:15 AM 40.3 °F 33.0 °F 34.3 °F 79% 29.68 in 10.0 mi NW 12.7 mph - N/A   Overcast
8:35 AM 40.5 °F 33.6 °F 34.0 °F 78% 29.69 in 10.0 mi NW 11.5 mph 19.6 mph N/A   Overcast
8:55 AM 40.6 °F 33.8 °F 34.2 °F 78% 29.69 in 10.0 mi NW 11.5 mph 17.3 mph N/A   Overcast
9:15 AM 41.0 °F 34.3 °F 34.0 °F 76% 29.70 in 10.0 mi WNW 11.5 mph 17.3 mph N/A   Overcast
9:35 AM 41.4 °F 35.2 °F 33.6 °F 74% 29.70 in 10.0 mi WNW 10.4 mph - N/A   Overcast
9:55 AM 41.9 °F 35.4 °F 33.8 °F 73% 29.70 in 10.0 mi WNW 11.5 mph 19.6 mph N/A   Overcast
10:15 AM 43.0 °F 35.7 °F 34.0 °F 71% 29.70 in 10.0 mi West 15.0 mph 20.7 mph N/A   Overcast
10:35 AM 45.0 °F 38.9 °F 34.3 °F 66% 29.70 in 10.0 mi West 12.7 mph 18.4 mph N/A   Mostly Cloudy
10:55 AM 45.9 °F 41.2 °F 33.3 °F 61% 29.71 in 10.0 mi WNW 9.2 mph 19.6 mph N/A   Mostly Cloudy
11:15 AM 45.9 °F 39.7 °F 31.6 °F 58% 29.72 in 10.0 mi WNW 13.8 mph 21.9 mph N/A   Mostly Cloudy
11:35 AM 47.7 °F - 32.0 °F 55% 29.71 in 10.0 mi NW 12.7 mph 16.1 mph N/A   Scattered Clouds
11:55 AM 49.8 °F - 31.8 °F 50% 29.72 in 10.0 mi WNW 15.0 mph 21.9 mph N/A   Scattered Clouds
12:15 PM 49.6 °F - 29.1 °F 45% 29.72 in 10.0 mi NW 13.8 mph 24.2 mph N/A   Scattered Clouds
12:35 PM 50.7 °F - 30.0 °F 45% 29.72 in 10.0 mi NW 9.2 mph 26.5 mph N/A   Scattered Clouds
12:55 PM 50.4 °F - 29.8 °F 45% 29.72 in 10.0 mi WNW 12.7 mph 26.5 mph N/A   Mostly Cloudy
1:15 PM 51.8 °F - 29.3 °F 42% 29.72 in 10.0 mi NW 16.1 mph 23.0 mph N/A   Overcast
1:35 PM 52.0 °F - 27.7 °F 39% 29.72 in 10.0 mi NW 15.0 mph 23.0 mph N/A   Overcast
1:55 PM 52.5 °F - 26.8 °F 37% 29.72 in 10.0 mi NW 13.8 mph 27.6 mph N/A   Overcast
2:15 PM 54.0 °F - 27.9 °F 37% 29.73 in 10.0 mi West 16.1 mph 23.0 mph N/A   Overcast
2:35 PM 53.8 °F - 26.2 °F 35% 29.73 in 10.0 mi West 19.6 mph 28.8 mph N/A   Overcast
2:55 PM 53.6 °F - 25.9 °F 34% 29.73 in 10.0 mi NW 16.1 mph 27.6 mph N/A   Mostly Cloudy
3:15 PM 53.4 °F - 25.9 °F 34% 29.74 in 10.0 mi WNW 16.1 mph 25.3 mph N/A   Mostly Cloudy
3:35 PM 54.3 °F - 25.5 °F 33% 29.74 in 10.0 mi West 19.6 mph 26.5 mph N/A   Mostly Cloudy
3:55 PM 53.2 °F - 25.3 °F 34% 29.75 in 10.0 mi West 16.1 mph 25.3 mph N/A   Mostly Cloudy
4:15 PM 52.7 °F - 25.3 °F 35% 29.75 in 10.0 mi WNW 12.7 mph 23.0 mph N/A   Mostly Cloudy
4:35 PM 51.8 °F - 25.0 °F 35% 29.76 in 10.0 mi WNW 15.0 mph 19.6 mph N/A   Mostly Cloudy
4:55 PM 54.5 °F - 25.9 °F 33% 29.76 in 10.0 mi WNW 17.3 mph 23.0 mph N/A   Mostly Cloudy
5:15 PM 50.9 °F - 25.9 °F 38% 29.77 in 10.0 mi West 12.7 mph 20.7 mph N/A   Scattered Clouds
5:35 PM 52.7 °F - 25.3 °F 35% 29.77 in 10.0 mi West 11.5 mph 17.3 mph N/A   Mostly Cloudy
5:55 PM 52.0 °F - 25.9 °F 36% 29.77 in 10.0 mi WNW 9.2 mph - N/A   Mostly Cloudy
6:15 PM 52.3 °F - 26.4 °F 37% 29.78 in 10.0 mi West 12.7 mph 16.1 mph N/A   Mostly Cloudy
6:35 PM 50.5 °F - 25.3 °F 38% 29.78 in 10.0 mi West 10.4 mph 19.6 mph N/A   Mostly Cloudy
6:55 PM 49.8 °F - 25.9 °F 39% 29.79 in 10.0 mi West 6.9 mph - N/A   Mostly Cloudy
7:15 PM 49.1 °F - 26.1 °F 41% 29.79 in 10.0 mi Calm Calm - N/A   Mostly Cloudy
7:35 PM 48.0 °F - 25.3 °F 41% 29.79 in 10.0 mi Calm Calm - N/A   Scattered Clouds
7:55 PM 46.6 °F - 26.2 °F 45% 29.79 in 10.0 mi Calm Calm - N/A   Mostly Cloudy
8:15 PM 45.0 °F - 27.0 °F 49% 29.79 in 10.0 mi Calm Calm - N/A   Overcast
8:35 PM 44.8 °F - 26.6 °F 49% 29.79 in 10.0 mi Calm Calm - N/A   Mostly Cloudy
8:55 PM 39.6 °F - 28.9 °F 66% 29.80 in 10.0 mi Calm Calm - N/A   Scattered Clouds
9:15 PM 38.8 °F - 29.8 °F 70% 29.80 in 10.0 mi Calm Calm - N/A   Mostly Cloudy
9:35 PM 39.0 °F - 30.4 °F 71% 29.80 in 10.0 mi Calm Calm - N/A   Overcast
9:55 PM 37.9 °F - 32.0 °F 79% 29.80 in 10.0 mi Calm Calm - N/A   Overcast
10:15 PM 43.7 °F 39.1 °F 28.9 °F 56% 29.81 in 10.0 mi WNW 8.1 mph - N/A   Overcast
10:35 PM 43.9 °F 38.8 °F 31.1 °F 61% 29.82 in 10.0 mi WNW 9.2 mph 16.1 mph N/A   Overcast
10:55 PM 43.0 °F 37.7 °F 32.2 °F 66% 29.83 in 10.0 mi WNW 9.2 mph - N/A Rain Light Rain
11:15 PM 42.3 °F 35.1 °F 33.1 °F 70% 29.85 in 10.0 mi NW 13.8 mph 19.6 mph N/A   Overcast
11:35 PM 41.5 °F 36.4 °F 33.3 °F 72% 29.85 in 10.0 mi NW 8.1 mph - N/A   Overcast
11:55 PM 41.0 °F 36.4 °F 33.1 °F 73% 29.86 in 10.0 mi NW 6.9 mph - N/A   Overcast